User: anonymous   Login
Location: *
(37.5724°S, 58.0067°E)
Time: 13:30:45
(UTC+00:00)
Language:

FengYun 1-2 T - Orbit

View from above orbital plane
View from above orbital plane
View from above satellite
View from above satellite

Ground track
Ground track

The orbit data is extracted from the following two-line orbital elements,

1 20855U 90081T   21135.91834734 -.00000087  00000-0 -25604-4 0  9997
2 20855  98.7027 145.9372 0023769 349.3182  70.6005 14.08692381577642
Epoch (UTC): 15 May 2021 22:02:25
Eccentricity: 0.0023769
inclination: 98.7027°
perigee height: 846 km
apogee height: 881 km
right ascension of ascending node: 145.9372°
argument of perigee: 349.3182°
revolutions per day: 14.08692381
mean anomaly at epoch: 70.6005°
orbit number at epoch: 57764

The dashed part of the orbit path shows where the satellite is in the earth's shadow,  

DLR